Regional Weather Roundup
Issued by NWS

Home | Current Version | Previous Version | Graphics & Text | Print | Product List | Glossary On
Versions: 1 2 3 4 5 6 7 8 9 10 11 12 13 14 15 16 17 18 19 20 21 22 23 24 25 26 27 28 29 30 31 32 33 34 35 36 37 38 39 40 41 42 43 44 45 46 47 48 49 50
000
ASUS43 KTOP 261559
RWRKS

WEATHER ROUNDUP FOR KANSAS
NATIONAL WEATHER SERVICE GOODLAND KS
1100 AM CDT WED JUL 26 2017

NOTE:  "FAIR" INDICATES FEW OR NO CLOUDS BELOW 12,000 FEET WITH NO
SIGNIFICANT WEATHER AND/OR OBSTRUCTIONS TO VISIBILITY.

KSZ001>006-013>018-027>032-041>047-261700-
NORTHWEST KANSAS

CITY           SKY/WX    TMP DP  RH WIND       PRES   REMARKS
GOODLAND       CLOUDY    73  67  81 NW22G30   30.07R
HAYS           PTSUNNY   87  66  49 SW10      29.93R
HILL CITY      CLOUDY    83  70  64 SE5       29.92F
RUSSELL        MOSUNNY   85  69  58 S17       29.90F
$$

KSZ061>065-074>080-084>089-261700-
SOUTHWEST KANSAS

CITY           SKY/WX    TMP DP  RH WIND       PRES   REMARKS
DODGE CITY     CLOUDY    86  63  45 W17G28    29.98R
ELKHART          N/A     80  54  40 NW6         N/A
GARDEN CITY    CLOUDY    77  64  64 W13       30.01S
GREAT BEND     CLOUDY    92  67  43 S13       29.93S HX  95
LIBERAL        CLOUDY    85  64  49 W8        30.04S
$$

KSZ066>073-081>083-090>101-261700-
SOUTHEAST KANSAS

CITY           SKY/WX    TMP DP  RH WIND       PRES   REMARKS
CHANUTE        MOSUNNY   87  72  60 S14       30.03S
COFFEYVILLE    CLOUDY    87  74  64 S13       30.03F HX  95
HUTCHINSON     CLOUDY    81  72  74 E10       29.97F
MEDICINE LODGE   N/A     91  66  43 S14       29.95F
NEWTON         CLOUDY    78  72  81 NE8       30.02S
PARSONS        CLOUDY    87  73  62 S10       30.04F
WICHITA INTL   CLOUDY    89  70  53 S17       29.97S
WICHITA JABRA  PTSUNNY   86  70  58 S15G21    29.98S
WICHITA MCCONL PTSUNNY   86  69  57 SW16      29.98F
WINFIELD       CLOUDY    87  71  58 S12       30.01S
$$

KSZ007>012-019>026-033>040-048>060-102>105-261700-
NORTHEAST KANSAS

CITY           SKY/WX    TMP DP  RH WIND       PRES   REMARKS
CONCORDIA      LGT RAIN  75  74  96 S8        29.97R FOG
EMPORIA        TSTM      76  74  93 E10       30.04R
LAWRENCE       LGT RAIN  77  75  93 W3        30.05S
MANHATTAN      LGT RAIN  76  73  91 SE13      29.97F
OLATHE IND     CLOUDY    79  74  84 NW5       30.07R
OLATHE EXE     CLOUDY    79  75  87 W5        30.07R
SALINA         CLOUDY    80  74  81 SE17      29.94F
TOPEKA BILLARD LGT RAIN  76  76 100 CALM      30.03F FOG
TOPEKA FORBES  TSTM      76  74  93 CALM      30.05S FOG
$$



USA.gov is the U.S. government's official web portal to all federal, state and local government web resources and services.